This is the latest recevied weather packets stored in our database for station/object N8AMF. If no packets are shown the sender has not sent any weather packets the latest 10 day(s).
| Time | Temp. | Humidity | Pressure | Rain* | Wind** | Luminosity | Snow |
|---|---|---|---|---|---|---|---|
| 1777629992 | 6.11° C | 93% | 1012 hPa | 0 mm | - | 0 W/m² | - |
| 1777629689 | 6.11° C | 92% | 1012.2 hPa | 0.51 mm | - | 0 W/m² | - |
| 1777629386 | 6.11° C | 92% | 1012.4 hPa | 0 mm | - | 0 W/m² | - |
| 1777629081 | 6.11° C | 92% | 1012.2 hPa | 0 mm | - | 0 W/m² | - |
| 1777628779 | 6.11° C | 91% | 1012.4 hPa | 0.51 mm | - | 0 W/m² | - |
| 1777628475 | 6.11° C | 91% | 1012.2 hPa | 1.78 mm | - | 0 W/m² | - |
| 1777628171 | 6.67° C | 90% | 1012.1 hPa | 1.78 mm | - | 0 W/m² | - |
| 1777627867 | 6.67° C | 90% | 1012.6 hPa | 1.27 mm | - | 0 W/m² | - |
| 1777627565 | 6.67° C | 89% | 1012.6 hPa | 1.27 mm | - | 0 W/m² | - |
| 1777627260 | 6.67° C | 89% | 1012.6 hPa | 1.27 mm | - | 0 W/m² | - |
| 1777626958 | 6.67° C | 88% | 1012.5 hPa | 1.27 mm | - | 0 W/m² | - |
| 1777626654 | 6.67° C | 87% | 1012.7 hPa | 1.27 mm | - | 0 W/m² | - |
| 1777626350 | 6.67° C | 87% | 1012.7 hPa | 1.27 mm | - | 0 W/m² | - |
| 1777626048 | 6.67° C | 87% | 1012.5 hPa | 0.51 mm | - | 0 W/m² | - |
| 1777625744 | 6.67° C | 86% | 1012.7 hPa | 0.51 mm | - | 0 W/m² | - |
| 1777625439 | 6.67° C | 85% | 1012.6 hPa | 1.27 mm | - | 0 W/m² | - |
| 1777625135 | 7.22° C | 85% | 1012.6 hPa | 0.51 mm | - | 0 W/m² | - |
| 1777624832 | 7.22° C | 84% | 1012.7 hPa | 0 mm | - | 0 W/m² | - |
| 1777624527 | 7.22° C | 83% | 1012.6 hPa | 0 mm | - | 0 W/m² | - |
| 1777624227 | 7.22° C | 82% | 1012.8 hPa | 0 mm | - | 0 W/m² | - |
| 1777623921 | 7.22° C | 80% | 1012.5 hPa | 0 mm | - | 0 W/m² | - |
| 1777623618 | 7.22° C | 79% | 1012.7 hPa | 0.51 mm | - | 0 W/m² | - |
| 1777623316 | 7.22° C | 78% | 1012.8 hPa | 0.51 mm | - | 0 W/m² | - |
| 1777623012 | 7.78° C | 77% | 1012.7 hPa | 0 mm | - | 0 W/m² | - |
| 1777622709 | 7.78° C | 76% | 1013 hPa | 0 mm | - | 0 W/m² | - |
* Rain latest hour (hover to see other rain measurements)
** Current wind speed in m/s (hover to see current wind gust speed)